Time,TemperatureF,DewpointF,PressureIn,WindDirection,WindDirectionDegrees,WindSpeedMPH,WindSpeedGustMPH,Humidity,HourlyPrecipIn,Conditions,Clouds,dailyrainin,SoftwareType,DateUTC
2013-02-25 00:02:00,25.0,23.0,30.10,WSW,237,0.0,0.0,92,0.00,,,0.00,,2013-02-25 06:02:00,
2013-02-25 00:11:00,25.0,23.0,30.10,WSW,237,0.0,0.0,92,0.00,,,0.00,,2013-02-25 06:11:00,
2013-02-25 00:21:00,25.0,23.0,30.10,WSW,237,0.0,0.0,92,0.00,,,0.00,,2013-02-25 06:21:00,
2013-02-25 00:31:00,25.0,23.0,30.10,WSW,237,0.0,0.0,93,0.00,,,0.00,,2013-02-25 06:31:00,
2013-02-25 00:41:00,25.0,23.0,30.10,WSW,237,0.0,0.0,93,0.00,,,0.00,,2013-02-25 06:41:00,
2013-02-25 00:52:00,25.0,23.0,30.10,WSW,237,0.0,0.0,92,0.00,,,0.00,,2013-02-25 06:52:00,
2013-02-25 01:01:00,25.0,23.0,30.11,WSW,237,0.0,0.0,92,0.00,,,0.00,,2013-02-25 07:01:00,
2013-02-25 01:11:00,25.0,23.0,30.11,WSW,237,0.0,0.0,92,0.00,,,0.00,,2013-02-25 07:11:00,
2013-02-25 01:21:00,25.0,23.0,30.11,WSW,237,0.0,0.0,92,0.00,,,0.00,,2013-02-25 07:21:00,
2013-02-25 01:31:00,26.0,24.0,30.10,WSW,237,0.0,0.0,91,0.00,,,0.00,,2013-02-25 07:31:00,
2013-02-25 01:41:00,26.0,24.0,30.10,WSW,237,0.0,0.0,91,0.00,,,0.00,,2013-02-25 07:41:00,
2013-02-25 01:51:00,26.0,24.0,30.11,WSW,237,0.0,0.0,91,0.00,,,0.00,,2013-02-25 07:51:00,
2013-02-25 02:01:00,26.0,24.0,30.11,WSW,237,0.0,0.0,91,0.00,,,0.00,,2013-02-25 08:01:00,
2013-02-25 02:11:00,26.0,24.0,30.10,WSW,237,0.0,0.0,91,0.00,,,0.00,,2013-02-25 08:11:00,
2013-02-25 02:21:00,26.0,24.0,30.10,WSW,237,0.0,0.0,91,0.00,,,0.00,,2013-02-25 08:21:00,
2013-02-25 02:31:00,26.0,24.0,30.10,WSW,237,0.0,0.0,91,0.00,,,0.00,,2013-02-25 08:31:00,
2013-02-25 02:41:00,26.0,24.0,30.10,WSW,237,0.0,0.0,91,0.00,,,0.00,,2013-02-25 08:41:00,
2013-02-25 02:52:00,26.0,24.0,30.10,WSW,237,0.0,0.0,91,0.00,,,0.00,,2013-02-25 08:52:00,
2013-02-25 03:01:00,26.0,24.0,30.10,WSW,237,0.0,0.0,91,0.00,,,0.00,,2013-02-25 09:01:00,
2013-02-25 03:12:00,26.0,24.0,30.10,WSW,237,0.0,0.0,91,0.00,,,0.00,,2013-02-25 09:12:00,
2013-02-25 03:21:00,26.0,23.0,30.10,WSW,237,0.0,0.0,90,0.00,,,0.00,,2013-02-25 09:21:00,
2013-02-25 03:31:00,26.0,23.0,30.10,WSW,237,0.0,0.0,90,0.00,,,0.00,,2013-02-25 09:31:00,
2013-02-25 03:41:00,26.0,23.0,30.10,WSW,237,0.0,0.0,90,0.00,,,0.00,,2013-02-25 09:41:00,
2013-02-25 03:52:00,26.0,23.0,30.09,WSW,237,0.0,0.0,90,0.00,,,0.00,,2013-02-25 09:52:00,
2013-02-25 04:01:00,26.0,23.0,30.10,WSW,237,0.0,0.0,90,0.00,,,0.00,,2013-02-25 10:01:00,
2013-02-25 04:11:00,26.0,23.0,30.09,WSW,237,0.0,0.0,90,0.00,,,0.00,,2013-02-25 10:11:00,
2013-02-25 04:21:00,26.0,23.0,30.09,WSW,237,0.0,0.0,90,0.00,,,0.00,,2013-02-25 10:21:00,
2013-02-25 04:32:00,26.0,23.0,30.09,WSW,237,0.0,0.0,90,0.00,,,0.00,,2013-02-25 10:32:00,
2013-02-25 04:42:00,26.0,23.0,30.09,WSW,237,0.0,0.0,90,0.00,,,0.00,,2013-02-25 10:42:00,
2013-02-25 04:52:00,26.0,24.0,30.09,WSW,237,0.0,0.0,91,0.00,,,0.00,,2013-02-25 10:52:00,
2013-02-25 05:01:00,26.0,23.0,30.09,WSW,237,0.0,0.0,90,0.00,,,0.00,,2013-02-25 11:01:00,
2013-02-25 05:11:00,26.0,23.0,30.09,WSW,237,0.0,0.0,90,0.00,,,0.00,,2013-02-25 11:11:00,
2013-02-25 05:21:00,26.0,24.0,30.09,WSW,237,0.0,0.0,91,0.00,,,0.00,,2013-02-25 11:21:00,
2013-02-25 05:32:00,26.0,24.0,30.09,WSW,237,0.0,0.0,91,0.00,,,0.00,,2013-02-25 11:32:00,
2013-02-25 05:42:00,26.0,24.0,30.09,WSW,237,0.0,0.0,91,0.00,,,0.00,,2013-02-25 11:42:00,
2013-02-25 05:52:00,26.0,24.0,30.08,WSW,237,0.0,0.0,92,0.00,,,0.00,,2013-02-25 11:52:00,
2013-02-25 06:01:00,26.0,24.0,30.07,WSW,237,0.0,0.0,93,0.00,,,0.00,,2013-02-25 12:01:00,
2013-02-25 06:11:00,26.0,24.0,30.07,WSW,237,0.0,0.0,93,0.00,,,0.00,,2013-02-25 12:11:00,
2013-02-25 06:21:00,25.0,23.0,30.08,WSW,237,0.0,0.0,93,0.00,,,0.00,,2013-02-25 12:21:00,
2013-02-25 06:32:00,25.0,23.0,30.09,WSW,237,0.0,0.0,93,0.00,,,0.00,,2013-02-25 12:32:00,
2013-02-25 06:42:00,25.0,23.0,30.09,WSW,237,0.0,0.0,93,0.00,,,0.00,,2013-02-25 12:42:00,
2013-02-25 06:55:00,25.0,24.0,30.10,WSW,237,0.0,0.0,94,0.00,,,0.00,,2013-02-25 12:55:00,
2013-02-25 07:02:00,26.0,25.0,30.10,WSW,237,0.0,0.0,95,0.00,,,0.00,,2013-02-25 13:02:00,
2013-02-25 07:12:00,26.0,25.0,30.10,WSW,237,0.0,0.0,95,0.00,,,0.00,,2013-02-25 13:12:00,
2013-02-25 07:22:00,26.0,25.0,30.10,WSW,237,0.0,0.0,95,0.00,,,0.00,,2013-02-25 13:22:00,
2013-02-25 07:32:00,26.0,25.0,30.10,WSW,237,0.0,0.0,96,0.00,,,0.00,,2013-02-25 13:32:00,
2013-02-25 07:42:00,26.0,25.0,30.10,WSW,237,0.0,0.0,96,0.00,,,0.00,,2013-02-25 13:42:00,
2013-02-25 07:52:00,26.0,25.0,30.10,WSW,237,0.0,0.0,96,0.00,,,0.00,,2013-02-25 13:52:00,
2013-02-25 08:03:00,26.0,25.0,30.10,WSW,237,0.0,0.0,95,0.00,,,0.00,,2013-02-25 14:03:00,
2013-02-25 08:17:00,26.0,25.0,30.10,WSW,237,0.0,0.0,95,0.00,,,0.00,,2013-02-25 14:17:00,
2013-02-25 08:32:00,26.0,25.0,30.10,WSW,237,0.0,0.0,94,0.00,,,0.00,,2013-02-25 14:32:00,
2013-02-25 08:42:00,26.0,25.0,30.10,WSW,237,0.0,0.0,94,0.00,,,0.00,,2013-02-25 14:42:00,
2013-02-25 08:52:00,27.0,25.0,30.11,WSW,237,0.0,0.0,92,0.00,,,0.00,,2013-02-25 14:52:00,
2013-02-25 09:02:00,27.0,25.0,30.12,WSW,237,0.0,0.0,91,0.00,,,0.00,,2013-02-25 15:02:00,
2013-02-25 09:11:00,27.0,25.0,30.12,WSW,237,0.0,0.0,91,0.00,,,0.00,,2013-02-25 15:11:00,
2013-02-25 09:21:00,27.0,24.0,30.11,WSW,237,0.0,0.0,90,0.00,,,0.00,,2013-02-25 15:21:00,
2013-02-25 09:32:00,27.0,24.0,30.11,WSW,237,0.0,0.0,90,0.00,,,0.00,,2013-02-25 15:32:00,
2013-02-25 09:41:00,27.0,24.0,30.11,WSW,237,0.0,0.0,90,0.00,,,0.00,,2013-02-25 15:41:00,
2013-02-25 09:52:00,28.0,25.0,30.11,WSW,237,0.0,0.0,87,0.00,,,0.00,,2013-02-25 15:52:00,
2013-02-25 10:01:00,28.0,24.0,30.12,NNE,23,0.0,0.0,86,0.00,,,0.00,,2013-02-25 16:01:00,
2013-02-25 10:11:00,28.0,24.0,30.12,NNE,23,0.0,0.0,86,0.00,,,0.00,,2013-02-25 16:11:00,
2013-02-25 10:21:00,28.0,24.0,30.11,NNE,23,0.0,0.0,85,0.00,,,0.00,,2013-02-25 16:21:00,
2013-02-25 10:31:00,28.0,24.0,30.12,West,268,0.0,0.0,86,0.00,,,0.00,,2013-02-25 16:31:00,
2013-02-25 10:42:00,28.0,24.0,30.12,West,268,0.0,0.0,86,0.00,,,0.00,,2013-02-25 16:42:00,
2013-02-25 10:52:00,28.0,24.0,30.11,West,268,0.0,0.0,85,0.00,,,0.00,,2013-02-25 16:52:00,
2013-02-25 11:01:00,29.0,25.0,30.11,West,268,0.0,0.0,84,0.00,,,0.00,,2013-02-25 17:01:00,
2013-02-25 11:11:00,29.0,25.0,30.11,West,268,0.0,0.0,84,0.00,,,0.00,,2013-02-25 17:11:00,
2013-02-25 11:21:00,29.0,24.0,30.11,West,268,0.0,0.0,82,0.00,,,0.00,,2013-02-25 17:21:00,
2013-02-25 11:31:00,29.0,24.0,30.11,West,268,0.0,0.0,80,0.00,,,0.00,,2013-02-25 17:31:00,
2013-02-25 11:41:00,29.0,24.0,30.11,West,268,0.0,0.0,80,0.00,,,0.00,,2013-02-25 17:41:00,
2013-02-25 11:52:00,30.0,25.0,30.11,West,268,0.0,0.0,80,0.00,,,0.00,,2013-02-25 17:52:00,
2013-02-25 12:01:00,30.0,25.0,30.11,West,268,0.0,0.0,80,0.00,,,0.00,,2013-02-25 18:01:00,
2013-02-25 12:12:00,30.0,25.0,30.11,West,268,0.0,0.0,80,0.00,,,0.00,,2013-02-25 18:12:00,
2013-02-25 12:21:00,31.0,25.0,30.10,West,268,0.0,0.0,78,0.00,,,0.00,,2013-02-25 18:21:00,
2013-02-25 12:32:00,31.0,25.0,30.10,WNW,288,4.0,5.0,77,0.00,,,0.00,,2013-02-25 18:32:00,
2013-02-25 12:41:00,31.0,25.0,30.10,WNW,288,4.0,5.0,77,0.00,,,0.00,,2013-02-25 18:41:00,
2013-02-25 12:52:00,31.0,25.0,30.10,West,278,5.0,6.0,79,0.00,,,0.00,,2013-02-25 18:52:00,
2013-02-25 13:01:00,31.0,25.0,30.09,SSE,161,0.0,0.0,78,0.00,,,0.00,,2013-02-25 19:01:00,
2013-02-25 13:11:00,31.0,25.0,30.09,SSE,161,0.0,0.0,78,0.00,,,0.00,,2013-02-25 19:11:00,
2013-02-25 13:21:00,32.0,26.0,30.09,West,274,2.0,4.0,78,0.00,,,0.00,,2013-02-25 19:21:00,
2013-02-25 13:31:00,32.0,26.0,30.08,NW,310,0.0,7.0,77,0.00,,,0.00,,2013-02-25 19:31:00,
2013-02-25 13:41:00,32.0,26.0,30.08,NW,310,0.0,7.0,77,0.00,,,0.00,,2013-02-25 19:41:00,
2013-02-25 13:52:00,32.0,26.0,30.08,West,265,0.0,3.0,78,0.00,,,0.00,,2013-02-25 19:52:00,
2013-02-25 14:01:00,32.0,26.0,30.08,SSW,210,0.0,5.0,78,0.00,,,0.00,,2013-02-25 20:01:00,
2013-02-25 14:11:00,32.0,26.0,30.08,SSW,210,0.0,5.0,78,0.00,,,0.00,,2013-02-25 20:11:00,
2013-02-25 14:21:00,32.0,26.0,30.07,West,272,5.0,6.0,79,0.00,,,0.00,,2013-02-25 20:21:00,
2013-02-25 14:31:00,32.0,26.0,30.07,South,185,0.0,5.0,78,0.00,,,0.00,,2013-02-25 20:31:00,
2013-02-25 14:41:00,32.0,26.0,30.07,South,185,0.0,5.0,78,0.00,,,0.00,,2013-02-25 20:41:00,
2013-02-25 14:52:00,32.0,26.0,30.06,SSW,209,0.0,0.0,77,0.00,,,0.00,,2013-02-25 20:52:00,
2013-02-25 15:01:00,33.0,26.0,30.06,West,279,0.0,6.0,76,0.00,,,0.00,,2013-02-25 21:01:00,
2013-02-25 15:11:00,33.0,26.0,30.06,West,279,0.0,6.0,76,0.00,,,0.00,,2013-02-25 21:11:00,
2013-02-25 15:21:00,34.0,27.0,30.06,SE,137,0.0,0.0,74,0.00,,,0.00,,2013-02-25 21:21:00,
2013-02-25 15:31:00,34.0,27.0,30.06,WNW,303,0.0,3.0,75,0.00,,,0.00,,2013-02-25 21:31:00,
2013-02-25 15:42:00,34.0,27.0,30.06,WNW,303,0.0,3.0,75,0.00,,,0.00,,2013-02-25 21:42:00,
2013-02-25 15:52:00,34.0,27.0,30.06,West,279,0.0,5.0,75,0.00,,,0.00,,2013-02-25 21:52:00,
2013-02-25 16:01:00,34.0,27.0,30.06,SE,142,4.0,6.0,75,0.00,,,0.00,,2013-02-25 22:01:00,
2013-02-25 16:11:00,34.0,27.0,30.06,SE,142,4.0,6.0,75,0.00,,,0.00,,2013-02-25 22:11:00,
2013-02-25 16:21:00,34.0,27.0,30.06,WSW,250,0.0,0.0,75,0.00,,,0.00,,2013-02-25 22:21:00,
2013-02-25 16:32:00,34.0,27.0,30.06,West,262,0.0,5.0,76,0.00,,,0.00,,2013-02-25 22:32:00,
2013-02-25 16:42:00,34.0,27.0,30.06,West,262,0.0,5.0,76,0.00,,,0.00,,2013-02-25 22:42:00,
2013-02-25 16:52:00,34.0,28.0,30.06,SW,217,0.0,5.0,77,0.00,,,0.00,,2013-02-25 22:52:00,
2013-02-25 17:01:00,33.0,27.0,30.06,NW,319,0.0,0.0,77,0.00,,,0.00,,2013-02-25 23:01:00,
2013-02-25 17:11:00,33.0,27.0,30.06,NW,319,0.0,0.0,77,0.00,,,0.00,,2013-02-25 23:11:00,
2013-02-25 17:22:00,34.0,28.0,30.06,NW,319,0.0,0.0,77,0.00,,,0.00,,2013-02-25 23:22:00,
2013-02-25 17:31:00,33.0,27.0,30.05,NW,312,0.0,0.0,78,0.00,,,0.00,,2013-02-25 23:31:00,
2013-02-25 17:41:00,33.0,27.0,30.05,NW,312,0.0,0.0,78,0.00,,,0.00,,2013-02-25 23:41:00,
2013-02-25 17:52:00,32.0,26.0,30.06,NW,312,0.0,0.0,79,0.00,,,0.00,,2013-02-25 23:52:00,
2013-02-25 18:01:00,31.0,26.0,30.06,NW,312,0.0,0.0,81,0.00,,,0.00,,2013-02-26 00:01:00,
2013-02-25 18:11:00,31.0,26.0,30.06,NW,312,0.0,0.0,81,0.00,,,0.00,,2013-02-26 00:11:00,
2013-02-25 18:21:00,31.0,27.0,30.05,NW,312,0.0,0.0,84,0.00,,,0.00,,2013-02-26 00:21:00,
2013-02-25 18:32:00,30.0,26.0,30.05,NW,312,0.0,0.0,85,0.00,,,0.00,,2013-02-26 00:32:00,
2013-02-25 18:41:00,30.0,26.0,30.05,NW,312,0.0,0.0,85,0.00,,,0.00,,2013-02-26 00:41:00,
2013-02-25 18:52:00,29.0,25.0,30.05,NW,312,0.0,0.0,86,0.00,,,0.00,,2013-02-26 00:52:00,
2013-02-25 19:02:00,28.0,25.0,30.05,NW,312,0.0,0.0,87,0.00,,,0.00,,2013-02-26 01:02:00,
2013-02-25 19:11:00,28.0,25.0,30.05,NW,312,0.0,0.0,87,0.00,,,0.00,,2013-02-26 01:11:00,
2013-02-25 19:21:00,28.0,25.0,30.06,NW,312,0.0,0.0,88,0.00,,,0.00,,2013-02-26 01:21:00,
2013-02-25 19:31:00,27.0,24.0,30.06,NW,312,0.0,0.0,90,0.00,,,0.00,,2013-02-26 01:31:00,
2013-02-25 19:41:00,27.0,24.0,30.06,NW,312,0.0,0.0,90,0.00,,,0.00,,2013-02-26 01:41:00,
2013-02-25 19:51:00,27.0,24.0,30.07,NW,312,0.0,0.0,90,0.00,,,0.00,,2013-02-26 01:51:00,
2013-02-25 20:01:00,26.0,24.0,30.07,NW,312,0.0,0.0,91,0.00,,,0.00,,2013-02-26 02:01:00,
2013-02-25 20:11:00,26.0,24.0,30.07,NW,312,0.0,0.0,91,0.00,,,0.00,,2013-02-26 02:11:00,
2013-02-25 20:21:00,25.0,23.0,30.07,NW,312,0.0,0.0,93,0.00,,,0.00,,2013-02-26 02:21:00,
2013-02-25 20:32:00,25.0,24.0,30.06,NW,312,0.0,0.0,94,0.00,,,0.00,,2013-02-26 02:32:00,
2013-02-25 20:41:00,25.0,24.0,30.06,NW,312,0.0,0.0,94,0.00,,,0.00,,2013-02-26 02:41:00,
2013-02-25 20:52:00,25.0,23.0,30.06,NW,312,0.0,0.0,93,0.00,,,0.00,,2013-02-26 02:52:00,
2013-02-25 21:01:00,24.0,23.0,30.06,NW,312,0.0,0.0,94,0.00,,,0.00,,2013-02-26 03:01:00,
2013-02-25 21:11:00,24.0,23.0,30.06,NW,312,0.0,0.0,94,0.00,,,0.00,,2013-02-26 03:11:00,
2013-02-25 21:21:00,24.0,23.0,30.06,NW,312,0.0,0.0,95,0.00,,,0.00,,2013-02-26 03:21:00,
2013-02-25 21:32:00,23.0,22.0,30.06,NW,312,0.0,0.0,96,0.00,,,0.00,,2013-02-26 03:32:00,
2013-02-25 21:41:00,23.0,22.0,30.06,NW,312,0.0,0.0,96,0.00,,,0.00,,2013-02-26 03:41:00,
2013-02-25 21:52:00,22.0,21.0,30.06,NW,312,0.0,0.0,96,0.00,,,0.00,,2013-02-26 03:52:00,
2013-02-25 22:01:00,22.0,22.0,30.04,NW,312,0.0,0.0,99,0.00,,,0.00,,2013-02-26 04:01:00,
2013-02-25 22:11:00,22.0,22.0,30.04,NW,312,0.0,0.0,99,0.00,,,0.00,,2013-02-26 04:11:00,
2013-02-25 22:21:00,21.0,20.0,30.04,NW,312,0.0,0.0,97,0.00,,,0.00,,2013-02-26 04:21:00,
2013-02-25 22:32:00,21.0,21.0,30.04,NW,312,0.0,0.0,98,0.00,,,0.00,,2013-02-26 04:32:00,
2013-02-25 22:42:00,21.0,21.0,30.04,NW,312,0.0,0.0,98,0.00,,,0.00,,2013-02-26 04:42:00,
2013-02-25 22:52:00,20.0,20.0,30.04,NW,312,0.0,0.0,99,0.00,,,0.00,,2013-02-26 04:52:00,
2013-02-25 23:01:00,19.0,19.0,30.05,NW,312,0.0,0.0,99,0.00,,,0.00,,2013-02-26 05:01:00,
2013-02-25 23:11:00,19.0,19.0,30.04,NW,312,0.0,0.0,99,0.00,,,0.00,,2013-02-26 05:11:00,
2013-02-25 23:21:00,19.0,19.0,30.04,NW,312,0.0,0.0,99,0.00,,,0.00,,2013-02-26 05:21:00,
2013-02-25 23:31:00,19.0,19.0,30.04,NW,312,0.0,0.0,99,0.00,,,0.00,,2013-02-26 05:31:00,
2013-02-25 23:42:00,19.0,19.0,30.04,NW,312,0.0,0.0,99,0.00,,,0.00,,2013-02-26 05:42:00,
2013-02-25 23:52:00,19.0,19.0,30.05,NW,312,0.0,0.0,99,0.00,,,0.00,,2013-02-26 05:52:00,